Regional Weather Roundup
Issued by NWS

Home | Current Version | Previous Version | Graphics & Text | Print | Product List | Glossary Off
Versions: 1 2 3 4 5 6 7 8 9 10 11 12 13 14 15 16 17 18 19 20 21 22 23 24 25 26 27 28 29 30 31 32 33 34 35 36 37 38 39 40 41 42 43 44 45 46 47 48 49 50

631
ASUS43 KMKX 181210
RWRWI

WISCONSIN REGIONAL WEATHER ROUNDUP
NATIONAL WEATHER SERVICE MILWAUKEE/SULLIVAN WI
600 AM CST WED JAN 18 2017

NOTE: "FAIR" INDICATES FEW OR NO CLOUDS BELOW 12,000 FEET WITH NO
SIGNIFICANT WEATHER AND/OR OBSTRUCTIONS TO VISIBILITY.

WIZ001-002-006>008-014>016-023>028-181300-
NORTHWEST WISCONSIN

CITY           SKY/WX    TMP DP  RH WIND       PRES   REMARKS
SUPERIOR ARPT  CLOUDY    25  23  91 SW6       29.81F WCI  18
6HR MIN TEMP:  22; 6HR MAX TEMP:  26;

ASHLAND        CLOUDY    30  25  81 SW18G26   29.82F WCI  18
6HR MIN TEMP:  27; 6HR MAX TEMP:  30;

HAYWARD        CLOUDY    27  24  89 SW7       29.87F WCI  19
6HR MIN TEMP:  27; 6HR MAX TEMP:  30;

SIREN          CLOUDY    28  25  88 CALM      29.89R
6HR MIN TEMP:  27; 6HR MAX TEMP:  29;

CUMBERLAND     CLOUDY    25  23  93 S10       29.90F WCI  15
RICE LAKE      CLOUDY    27  25  95 S9        29.94F WCI  17
6HR MIN TEMP:  26; 6HR MAX TEMP:  31;

CHETEK         CLOUDY    27  25  95 S8        29.95S WCI  18
6HR MIN TEMP:  27; 6HR MAX TEMP:  30;

LADYSMITH      CLOUDY    29  28  96 S6        29.94F WCI  23
6HR MIN TEMP:  28; 6HR MAX TEMP:  31;

EAU CLAIRE     CLOUDY    28  26  92 SW13      29.99R WCI  17
6HR MIN TEMP:  28; 6HR MAX TEMP:  31;

MENOMONIE      CLOUDY    29  27  93 MISG      29.99R
6HR MIN TEMP:  28; 6HR MAX TEMP:  32;

NEW RICHMOND   CLOUDY    26  25  98 S10       29.93F WCI  16
6HR MIN TEMP:  25; 6HR MAX TEMP:  30;

OSCEOLA        CLOUDY    27  27 100 S10       29.94F WCI  17
6HR MIN TEMP:  26; 6HR MAX TEMP:  30;

$$

WIZ003>005-009-010-017-018-181300-
NORTH CENTRAL WISCONSIN

CITY           SKY/WX    TMP DP  RH WIND       PRES   REMARKS
MANITOWISH WTR CLOUDY    26  26 100 SW10      29.86F WCI  16
6HR MIN TEMP:  12; 6HR MAX TEMP:  26;

ARBOR VITAE    CLOUDY    27  26  94 SW7       29.89R WCI  19
6HR MIN TEMP:  17; 6HR MAX TEMP:  27;

WOODRUFF       CLOUDY    27  26  94 SW7       29.89R WCI  19
6HR MIN TEMP:  17; 6HR MAX TEMP:  27;

RHINELANDER    CLOUDY    29  28  96 SW13G22   29.90S FOG     WCI  19
6HR MIN TEMP:  23; 6HR MAX TEMP:  29;

EAGLE RIVER    CLOUDY    26  26 100 SW9       29.88R WCI  17
6HR MIN TEMP:  13; 6HR MAX TEMP:  26;

LAND O LAKES   CLOUDY    24  23  97 SW6       29.88R WCI  16
6HR MIN TEMP:   9; 6HR MAX TEMP:  24;

PHILLIPS       CLOUDY   N/A N/A N/A SW9       29.90S
TOMAHAWK       CLOUDY    28  27  96 SW5       29.93F WCI  23
6HR MIN TEMP:  20; 6HR MAX TEMP:  28;

MEDFORD        CLOUDY    28  28  97 SW8       29.95S FOG     WCI  20
6HR MIN TEMP:  26; 6HR MAX TEMP:  29;

MERRILL        CLOUDY    30  30 100 CALM        N/A  FOG
6HR MIN TEMP:  22; 6HR MAX TEMP:  30;

$$

WIZ029-030-035-036-043>047-181300-
CENTRAL WISCONSIN

CITY           SKY/WX    TMP DP  RH WIND       PRES   REMARKS
WAUSAU         FOG       30  30 100 W7        29.97R VSB 1   WCI  23
6HR MIN TEMP:  26; 6HR MAX TEMP:  30;

MOSINEE        FOG       30  30 100 SW8       29.98S VSB 1/2 WCI  23
MARSHFIELD     CLOUDY    29  28  96 W10       29.97R FOG     WCI  20
6HR MIN TEMP:  29; 6HR MAX TEMP:  30;

STEVENS POINT  FOG       30  30 100 SW6       29.99S VSB 3/4 WCI  24
6HR MIN TEMP:  29; 6HR MAX TEMP:  30;

WAUPACA        CLOUDY    34  33  96 SW6       30.01S FOG     WCI  29
6HR MIN TEMP:  33; 6HR MAX TEMP:  36;

WAUTOMA        CLOUDY    32  32 100 SW10      30.03R FOG     WCI  24
6HR MIN TEMP:  32; 6HR MAX TEMP:  33;

WISC RAPIDS    FOG       31  31 100 SW12      30.00F VSB 1/2 WCI  22
6HR MIN TEMP:  31; 6HR MAX TEMP:  33;

CAMP DOUGLAS   CLOUDY    32  32 100 SW9       30.02S WCI  24
$$

WIZ011>013-019>022-031-037>040-048>050-181300-
NORTHEAST WISCONSIN

CITY           SKY/WX    TMP DP  RH WIND       PRES   REMARKS
ANTIGO         FOG       28  28 100 W8        29.94R VSB 1   WCI  19
6HR MIN TEMP:  18; 6HR MAX TEMP:  28;

SHAWANO        CLOUDY    33  32  96 CALM      29.97F FOG
6HR MIN TEMP:  31; 6HR MAX TEMP:  33;

OCONTO         NOT AVBL
STURGEON BAY   FOG       31  31 100 SW10      29.98R VSB 3/4 WCI  22
6HR MIN TEMP:  31; 6HR MAX TEMP:  33;

GREEN BAY      FOG       34  34 100 SW8       30.01R VSB 1   WCI  27
6HR MIN TEMP:  33; 6HR MAX TEMP:  35;

MANITOWOC      CLOUDY    33  32  96 W6        30.02R FOG     WCI  28
6HR MIN TEMP:  33; 6HR MAX TEMP:  34;

APPLETON       FOG       32  32 100 SW9       30.00R VSB 1/2 WCI  24
CLINTONVILLE   CLOUDY    32  32 100 SW8G16    29.99S FOG     WCI  25
OSHKOSH        FOG       32  31  96 VRB7G16   30.02R VSB 1   WCI  26
6HR MIN TEMP:  32; 6HR MAX TEMP:  34;

$$

WIZ032>034-041-042-053>061-181300-
SOUTHWEST WISCONSIN

CITY           SKY/WX    TMP DP  RH WIND       PRES   REMARKS
LA CROSSE      CLOUDY    33  29  85 S10       30.05S WCI  25
6HR MIN TEMP:  33; 6HR MAX TEMP:  35;

SPARTA         CLOUDY    31  30  96 SW6       30.05S WCI  25
6HR MIN TEMP:  31; 6HR MAX TEMP:  32;

VIROQUA        CLOUDY    30  30 100 SW13      30.04S WCI  20
6HR MIN TEMP:  30; 6HR MAX TEMP:  32;

BOSCOBEL       CLOUDY    33  31  92 SW9       30.09R WCI  25
6HR MIN TEMP:  33; 6HR MAX TEMP:  36;

PRAIRIE DU CHI CLOUDY    32  30  91 SW5       30.09S WCI  27
6HR MIN TEMP:  32; 6HR MAX TEMP:  33;

PLATTEVILLE    CLOUDY    32  32 100 SW14      30.09S WCI  22
6HR MIN TEMP:  32; 6HR MAX TEMP:  34;

$$

WIZ056-057-062-063-064-067-068-181300-
SOUTH CENTRAL WISCONSIN

CITY           SKY/WX    TMP DP  RH WIND       PRES   REMARKS
REEDSBURG      CLOUDY    31  31 100 SW10      30.05R FOG     WCI  23
6HR MIN TEMP:  31; 6HR MAX TEMP:  33;

BARABOO/DELLS  CLOUDY    31  31 100 SW10      30.04S FOG     WCI  22
6HR MIN TEMP:  31; 6HR MAX TEMP:  33;

LONE ROCK      CLOUDY    33  31  92 W7        30.08R WCI  27
6HR MIN TEMP:  32; 6HR MAX TEMP:  34;

MINERAL POINT  FOG       32  32 100 SW10      30.07R VSB 1/2 WCI  24
MADISON        CLOUDY    31  30  96 VRB5      30.07R WCI  26
6HR MIN TEMP:  31; 6HR MAX TEMP:  34;

MIDDLETON      CLOUDY    33  33 100 SW7       30.06S WCI  27
6HR MIN TEMP:  33; 6HR MAX TEMP:  35;

WATERTOWN      CLOUDY    33  33 100 W7        30.05S FOG     WCI  27
6HR MIN TEMP:  33; 6HR MAX TEMP:  33;

MONROE         FOG       32  32 100 SW17      30.07S VSB 1/2 WCI  21
JANESVILLE     CLOUDY    34  34 100 W7        30.08S FOG     WCI  28
$$

WIZ051-052-058>065-066-070>072-181300-
SOUTHEAST WISCONSIN

CITY           SKY/WX    TMP DP  RH WIND       PRES   REMARKS
MILWAUKEE      CLOUDY    36  33  89 W8        30.05R FOG     WCI  30
6HR MIN TEMP:  36; 6HR MAX TEMP:  36;

WAUKESHA       CLOUDY    32  32 100 SW8       30.06R FOG     WCI  25
MILWAUKEE/TIMM CLOUDY    34  32  93 SW7       30.06R FOG     WCI  28
RACINE         CLOUDY    35  33  92 SW6       30.07S FOG     WCI  30
6HR MIN TEMP:  34; 6HR MAX TEMP:  35;

KENOSHA        CLOUDY    35  33  92 W9        30.07R FOG     WCI  28
6HR MIN TEMP:  34; 6HR MAX TEMP:  35;

FOND DU LAC    FOG       32  30  92 W9        30.04R VSB 1   WCI  24
6HR MIN TEMP:  32; 6HR MAX TEMP:  35;

SHEBOYGAN      CLOUDY    33  32  96 W9        30.02R FOG     WCI  25
6HR MIN TEMP:  33; 6HR MAX TEMP:  34;

WEST BEND      CLOUDY    34  34 100 W7        30.04R FOG     WCI  28
JUNEAU         FOG       31  31  99 SW12      30.06R VSB 1/4 WCI  22
6HR MIN TEMP:  31; 6HR MAX TEMP:  33;

$$

LSZ147-162-181300-
LAKE SUPERIOR

STATION/POSITION TIME  TEMP    WIND        PRES    WAVE
                       AIR SEA DIR/SP/G            HT/PER
                 (UTC) (F)     (DEG/KT/KT) (MB)    (FT/S)
DEVILS ISLAND    1100   31     220/ 10/ 12 1009.8F
PORT WING        1130   31     200/  9/ 13 1009.5F
SAXON HARBOR     1140   33     190/ 10/ 22 1009.8S
$$

LMZ867-665-643>646-181300-
LAKE MICHIGAN

STATION/POSITION TIME  TEMP    WIND        PRES    WAVE
                       AIR SEA DIR/SP/G            HT/PER
                 (UTC) (F)     (DEG/KT/KT) (MB)    (FT/S)
NORTHPORT PIER   1140   33     200/  4/  8 1014.2R
SISTER BAY       1150   32     220/  7/  8   N/A
ALGOMA LAKESHORE 1139          280/  6/  9   N/A
KEWAUNEE LAKESHO 1142   32     270/  8/ 10 1015.1R
SHEBOYGAN LAKESH 1200   34     250/ 13/ 15 1017.0R
PORT



USA.gov is the U.S. government's official web portal to all federal, state and local government web resources and services.